EW3845 Weather Reports


time (UTC)temp
C
wind
direction
speed
KPH
gust
KPH
rain 1hr
cm
rain 24hr
cm
rain mn
cm
humidity
%
barometer
mb
20260902093006 20 360 0.0 0.0 0.00 0.00 0.00 73 1020.3
20260902091510 20 250 0.0 0.0 0.00 0.00 0.00 74 1020.2
20260902090003 19 360 0.0 0.0 0.00 0.00 0.00 78 1020.2
20260902084604 18 360 0.0 0.0 0.00 0.00 0.00 78 1020.1
20260902083058 18 360 0.0 0.0 0.00 0.00 0.00 81 1020.1
20260902081556 17 360 0.0 0.0 0.00 0.00 0.00 83 1020.0
20260902080051 16 296 0.0 0.0 0.00 0.00 0.00 84 1020.1
20260902074606 16 360 0.0 0.0 0.00 0.00 0.00 85 1020.0
20260902073045 16 360 0.0 0.0 0.00 0.00 0.00 86 1019.9
20260902071543 15 285 0.0 0.0 0.00 0.00 0.00 88 1019.8
20260902070042 15 284 0.0 0.0 0.00 0.00 0.00 90 1019.7
20260902064543 15 284 0.0 0.0 0.00 0.00 0.00 90 1019.8
20260902063100 15 284 0.0 0.0 0.00 0.00 0.00 90 1019.7
20260902061539 15 284 0.0 0.0 0.00 0.00 0.00 91 1019.6
20260902060052 15 284 0.0 0.0 0.00 0.00 0.00 91 1019.6
20260902054539 14 284 0.0 0.0 0.00 0.00 0.00 91 1019.7
20260902053037 14 284 0.0 0.0 0.00 0.00 0.00 92 1019.5
20260902051546 14 284 0.0 0.0 0.00 0.00 0.00 92 1019.4
20260902050035 14 284 0.0 0.0 0.00 0.00 0.00 92 1019.4
20260902044537 14 284 0.0 0.0 0.00 0.00 0.00 92 1019.2
20260902043041 14 284 0.0 0.0 0.00 0.00 0.00 92 1019.0
20260902041549 14 284 0.0 0.0 0.00 0.00 0.00 92 1019.0
20260902040032 14 284 0.0 0.0 0.00 0.00 0.00 92 1019.1
20260902034533 14 284 0.0 0.0 0.00 0.00 0.00 92 1019.2
20260902033031 15 284 0.0 0.0 0.00 0.00 0.00 92 1019.1
20260902031532 15 284 0.0 0.0 0.00 0.00 0.00 92 1019.1
20260902030030 15 284 0.0 0.0 0.00 0.00 0.00 92 1019.0
20260902024530 15 284 0.0 0.0 0.00 0.00 0.00 92 1019.2
20260902023029 15 284 0.0 0.0 0.00 0.00 0.00 92 1019.1
20260902021528 15 284 0.0 0.0 0.00 0.00 0.00 92 1019.4
20260902020032 15 284 0.0 0.0 0.00 0.00 0.00 92 1019.6
20260902014533 15 284 0.0 0.0 0.00 0.00 0.00 92 1019.5
20260902013026 15 284 0.0 0.0 0.00 0.00 0.00 91 1019.4
20260902011526 15 284 0.0 0.0 0.00 0.00 0.00 91 1019.3
20260902010028 15 284 0.0 0.0 0.00 0.00 0.00 91 1019.4
20260902004529 15 284 0.0 0.0 0.00 0.00 0.00 91 1019.6
20260902003104 15 284 0.0 0.0 0.00 0.00 0.00 91 1019.6
20260902001522 15 284 0.0 0.0 0.00 0.00 0.00 91 1019.7
20260902000031 15 284 0.0 0.0 0.00 0.00 0.00 90 1019.7
20260901234520 14 284 0.0 0.0 0.00 0.00 0.00 90 1019.8
20260901233019 15 284 0.0 0.0 0.00 0.00 0.00 90 1019.6
20260901231517 15 284 0.0 0.0 0.00 0.00 0.00 89 1019.6
20260901230017 15 284 0.0 0.0 0.00 0.00 0.00 89 1019.7
20260901224513 15 284 0.0 0.0 0.00 0.00 0.00 89 1019.8
20260901223011 15 284 0.0 0.0 0.00 0.00 0.00 89 1020.0
20260901221510 15 284 0.0 0.0 0.00 0.00 0.00 89 1020.2
20260901220013 15 284 0.0 0.0 0.00 0.00 0.00 89 1020.2
20260901214506 15 284 0.0 0.0 0.00 0.00 0.00 88 1020.1
20260901213005 15 284 0.0 0.0 0.00 0.00 0.00 88 1020.1
20260901211505 15 284 0.0 0.0 0.00 0.00 0.00 88 1020.1
20260901210004 15 284 0.0 0.0 0.00 0.00 0.00 88 1019.9
20260901204504 15 284 0.0 0.0 0.00 0.00 0.00 87 1019.8
20260901203003 15 284 0.0 0.0 0.00 0.00 0.00 87 1019.9
20260901201502 16 284 0.0 0.0 0.00 0.00 0.00 86 1019.8
20260901200001 16 284 0.0 0.0 0.00 0.00 0.00 85 1019.7
20260901194501 16 284 0.0 0.0 0.00 0.00 0.00 84 1019.7
20260901193106 16 284 0.0 0.0 0.00 0.00 0.00 84 1019.7
20260901191612 17 284 0.0 0.0 0.00 0.00 0.00 83 1019.7
20260901190133 17 284 0.0 0.0 0.00 0.00 0.00 82 1019.6
20260901184558 17 284 0.0 0.0 0.00 0.00 0.00 81 1019.6
20260901183100 18 284 0.0 0.0 0.00 0.00 0.00 80 1019.5
20260901181659 18 284 0.0 0.0 0.00 0.00 0.00 79 1019.5
20260901181556 18 284 0.0 0.0 0.00 0.00 0.00 79 1019.6
20260901181044 18 284 0.0 0.0 0.00 0.00 0.00 79 1019.6
20260901180557 19 284 0.0 0.0 0.00 0.00 0.00 78 1019.7
20260901180147 18 284 0.0 0.0 0.00 0.00 0.00 78 1019.4
20260901180045 19 284 0.0 0.0 0.00 0.00 0.00 78 1019.7
20260901175556 19 284 0.0 0.0 0.00 0.00 0.00 77 1019.7
20260901175103 20 284 0.0 0.0 0.00 0.00 0.00 77 1019.6
20260901174656 19 284 0.0 0.0 0.00 0.00 0.00 76 1019.5
20260901174555 20 284 0.0 0.0 0.00 0.00 0.00 76 1019.6
20260901174043 20 284 0.0 0.0 0.00 0.00 0.00 76 1019.6
20260901173556 20 284 0.0 0.0 0.00 0.00 0.00 75 1019.6
20260901173103 20 284 0.0 0.0 0.00 0.00 0.00 75 1019.5
20260901172553 20 284 0.0 0.0 0.00 0.00 0.00 75 1019.5
20260901172101 20 284 0.0 0.0 0.00 0.00 0.00 74 1019.4
20260901171651 20 284 0.0 0.0 0.00 0.00 0.00 74 1019.2
20260901171550 20 284 0.0 0.0 0.00 0.00 0.00 74 1019.4
20260901171041 20 284 0.0 0.0 0.00 0.00 0.00 73 1019.5
20260901170552 21 284 0.0 0.0 0.00 0.00 0.00 73 1019.5
20260901170139 20 284 0.0 0.0 0.00 0.00 0.00 72 1019.3
20260901170038 21 284 0.0 0.0 0.00 0.00 0.00 72 1019.5
20260901165613 21 284 0.0 0.0 0.00 0.00 0.00 71 1019.5
20260901165134 21 284 0.0 0.0 0.00 0.00 0.00 72 1019.5
20260901164518 21 287 0.0 0.0 0.00 0.00 0.00 72 1019.2
20260901163034 21 360 0.0 0.0 0.00 0.00 0.00 73 1019.3
20260901161522 21 294 0.0 0.0 0.00 0.00 0.00 72 1019.4
20260901160016 21 360 0.0 0.0 0.00 0.43 0.00 73 1019.3
20260901154532 21 360 0.0 0.0 0.00 0.43 0.00 72 1019.3
20260901153024 21 360 0.0 0.0 0.00 0.43 0.00 72 1019.3
20260901151515 21 360 0.0 0.0 0.00 0.43 0.00 73 1019.3
20260901150013 21 257 0.0 0.0 0.00 0.61 0.00 74 1019.2
20260901144518 20 255 0.0 0.0 0.00 0.61 0.00 76 1019.2
20260901143011 20 255 0.0 0.0 0.00 0.61 0.00 76 1019.3
20260901141515 20 246 0.0 0.0 0.00 0.61 0.00 76 1019.3
20260901140010 21 360 0.0 0.0 0.00 0.64 0.00 76 1019.1
20260901134509 21 360 0.0 0.0 0.00 0.64 0.00 77 1019.2
20260901133008 20 360 0.0 0.0 0.00 0.64 0.00 77 1019.3
20260901131509 20 360 0.0 0.0 0.00 0.64 0.00 80 1019.4
20260901130007 20 360 0.0 0.0 0.00 0.66 0.00 79 1019.7
20260901124507 20 360 0.0 0.0 0.00 0.66 0.00 78 1019.7
20260901123005 20 360 0.0 0.0 0.00 0.66 0.00 77 1019.6
20260901121506 20 360 0.0 0.0 0.00 0.66 0.00 77 1019.6
20260901120003 20 360 0.0 0.0 0.00 0.71 0.00 75 1019.6
20260901114702 20 289 0.0 0.0 0.00 0.71 0.00 80 1019.5
20260901114559 20 289 0.0 0.0 0.00 3.61 0.00 79 1019.6
20260901114045 20 360 0.0 0.0 0.00 3.61 0.00 78 1019.6
20260901113559 21 287 0.0 0.0 0.00 3.61 0.00 78 1019.6
20260901113151 20 360 0.0 0.0 0.00 0.71 0.00 79 1019.5
20260901113047 21 285 0.0 0.0 0.00 3.61 0.00 79 1019.7
20260901112559 21 292 0.0 0.0 0.00 3.61 0.00 79 1019.7
20260901112045 21 290 0.0 0.0 0.00 3.61 0.00 79 1019.7
20260901111618 21 297 0.0 0.0 0.00 3.61 0.00 81 1019.7
20260901111507 20 360 0.0 0.0 0.00 0.71 0.00 81 1019.5
20260901111043 20 284 0.0 0.0 0.00 3.61 0.00 82 1019.6
20260901110555 20 298 0.0 0.0 0.00 3.61 0.00 83 1019.6
20260901110103 20 360 0.0 0.0 0.00 3.91 0.00 84 1019.6
20260901105553 20 360 0.0 0.0 0.00 3.91 0.00 83 1019.7
20260901105043 20 299 0.0 0.0 0.00 3.91 0.00 83 1019.7
20260901104554 20 295 0.0 0.0 0.00 3.91 0.00 83 1019.7
20260901104501 19 295 0.0 0.0 0.00 0.79 0.00 83 1019.4
20260901104101 19 294 0.0 0.0 0.00 3.91 0.00 83 1019.7
20260901103553 20 360 0.0 0.0 0.00 3.91 0.00 82 1019.7
20260901103101 20 286 0.0 0.0 0.00 3.91 0.00 82 1019.7
20260901102553 20 298 0.0 0.0 0.00 3.91 0.00 82 1019.6
20260901102102 20 304 0.0 0.0 0.00 3.91 0.00 83 1019.6
20260901101653 19 286 0.0 0.0 0.00 0.79 0.00 84 1019.5
20260901101553 20 247 0.0 0.0 0.00 3.91 0.00 84 1019.7
20260901101042 19 296 0.0 0.0 0.00 3.91 0.00 85 1019.6
20260901100615 19 292 0.0 0.0 0.00 3.91 0.00 86 1019.7
20260901100101 18 294 0.0 0.0 0.00 3.91 0.00 86 1019.6
20260901100013 18 288 0.0 0.0 0.00 0.79 0.00 86 1019.5
20260901095550 18 286 0.0 0.0 0.00 3.91 0.00 86 1019.7
20260901095058 18 360 0.0 0.0 0.00 3.91 0.00 86 1019.8
20260901094651 18 294 0.0 0.0 0.00 0.79 0.00 86 1019.6
20260901094549 18 287 0.0 0.0 0.00 3.91 0.00 86 1019.8
20260901094057 18 360 0.0 0.0 0.00 3.91 0.00 86 1019.8
20260901093548 18 288 0.0 0.0 0.00 3.91 0.00 86 1019.7
20260901093157 17 286 0.0 0.0 0.00 0.79 0.00 86 1019.5
20260901093056 18 289 0.0 0.0 0.00 3.91 0.00 86 1019.6